This is the latest recevied weather packets stored in our database for station/object KC4JIR. If no packets are shown the sender has not sent any weather packets the latest 10 day(s).
| Time | Temp. | Humidity | Pressure | Rain* | Wind** | Luminosity | Snow |
|---|---|---|---|---|---|---|---|
| 1778090132 | 29.44° C | 50% | 1013 hPa | 0 mm | - | 658 W/m² | - |
| 1778089828 | 29.44° C | 50% | 1012.9 hPa | 0 mm | - | 661 W/m² | - |
| 1778089527 | 29.44° C | 50% | 1013 hPa | 0 mm | - | 735 W/m² | - |
| 1778089222 | 30° C | 47% | 1013.1 hPa | 0 mm | - | 776 W/m² | - |
| 1778088919 | 29.44° C | 49% | 1013.5 hPa | 0 mm | - | 744 W/m² | - |
| 1778088611 | 28.89° C | 48% | 1013.2 hPa | 0 mm | - | 756 W/m² | - |
| 1778088309 | 28.89° C | 47% | 1013.6 hPa | 0 mm | - | 748 W/m² | - |
| 1778088004 | 28.89° C | 54% | 1013.4 hPa | 0 mm | - | 699 W/m² | - |
| 1778087702 | 28.89° C | 51% | 1013.5 hPa | 0 mm | - | 688 W/m² | - |
| 1778087400 | 28.33° C | 52% | 1013.5 hPa | 0 mm | - | 811 W/m² | - |
| 1778087096 | 28.33° C | 52% | 1013.6 hPa | 0 mm | - | 811 W/m² | - |
| 1778086794 | 28.33° C | 55% | 1013.7 hPa | 0 mm | - | 929 W/m² | - |
| 1778086493 | 28.33° C | 53% | 1013.8 hPa | 0 mm | - | 925 W/m² | - |
| 1778086188 | 28.33° C | 52% | 1013.9 hPa | 0 mm | - | 689 W/m² | - |
| 1778085885 | 27.78° C | 52% | 1013.8 hPa | 0 mm | - | 882 W/m² | - |
| 1778085583 | 27.78° C | 55% | 1013.9 hPa | 0 mm | - | 447 W/m² | - |
| 1778085278 | 28.89° C | 53% | 1014.2 hPa | 0 mm | - | 676 W/m² | - |
| 1778084973 | 28.89° C | 56% | 1014.1 hPa | 0 mm | - | 873 W/m² | - |
| 1778084670 | 28.89° C | 53% | 1014.1 hPa | 0 mm | - | 752 W/m² | - |
| 1778084362 | 28.33° C | 51% | 1014.2 hPa | 0 mm | - | 818 W/m² | - |
| 1778084060 | 28.33° C | 52% | 1014.3 hPa | 0 mm | - | 779 W/m² | - |
| 1778083757 | 27.22° C | 54% | 1014.1 hPa | 0 mm | - | 697 W/m² | - |
| 1778083455 | 26.67° C | 57% | 1014.3 hPa | 0 mm | - | 582 W/m² | - |
| 1778083152 | 26.67° C | 58% | 1014.5 hPa | 0 mm | - | 513 W/m² | - |
| 1778082849 | 26.11° C | 60% | 1014.2 hPa | 0 mm | - | 498 W/m² | - |
* Rain latest hour (hover to see other rain measurements)
** Current wind speed in m/s (hover to see current wind gust speed)